Torna al catalogo

STARLINK-3114

AttivoComunicazioniVLEO
NORAD 49426·PAYLOAD·🇺🇸 United States

Lanciato Nov 13, 2021 da Cape Canaveral Space Force Station

Loading…

Prossimi Passaggi (prossime 24 ore)

TLE

AggiornatoSource: CelesTrak SupGP

Epoca: Sep 14, 2026, 22:09 UTC

1 49426C 21104U   26257.92340278  .00035311  00000+0  10434-2 0  2573
2 49426  53.1577  87.4458 0001476  84.4858  44.1942 15.34369182    13

Traccia STARLINK-3114 in tempo reale con AllMySat

Download on the App Store